GW2385 Weather Reports


time (UTC)temp
C
wind
direction
speed
KPH
gust
KPH
rain 1hr
cm
rain 24hr
cm
rain mn
cm
humidity
%
barometer
mb
20260507110202 9 166 1.6 1.6 0.00 0.00 0.00 84 1019.5
20260507105659 9 186 1.6 1.6 0.00 0.00 0.00 84 1019.5
20260507105155 10 173 0.0 1.6 0.00 0.00 0.00 83 1019.4
20260507104653 10 186 1.6 3.2 0.00 0.00 0.00 82 1019.4
20260507104149 10 185 4.8 4.8 0.00 0.00 0.00 83 1019.6
20260507103645 10 179 1.6 1.6 0.00 0.00 0.00 81 1019.4
20260507103142 10 185 0.0 1.6 0.00 0.00 0.00 82 1019.5
20260507102638 10 145 1.6 1.6 0.00 0.00 0.00 81 1019.6
20260507102134 10 183 1.6 1.6 0.00 0.00 0.00 81 1019.7
20260507101630 10 136 1.6 1.6 0.00 0.00 0.00 81 1019.6
20260507101126 10 157 1.6 1.6 0.00 0.00 0.00 81 1019.5
20260507100624 10 181 0.0 1.6 0.00 0.00 0.00 80 1019.5
20260507100122 10 144 1.6 3.2 0.00 0.00 0.00 81 1019.7
20260507095620 10 128 3.2 3.2 0.00 0.00 0.00 81 1019.5
20260507095116 10 204 1.6 1.6 0.00 0.00 0.00 81 1019.5
20260507094612 10 184 4.8 4.8 0.00 0.00 0.00 82 1019.3
20260507094109 10 180 1.6 1.6 0.00 0.00 0.00 83 1019.3
20260507093607 10 153 1.6 3.2 0.00 0.00 0.00 81 1019.4
20260507093105 10 158 1.6 3.2 0.00 0.00 0.00 82 1019.4
20260507092601 10 180 3.2 3.2 0.00 0.00 0.00 84 1019.5
20260507092057 10 165 1.6 1.6 0.00 0.00 0.00 82 1019.5
20260507091554 10 146 1.6 1.6 0.00 0.00 0.00 84 1019.5
20260507091050 10 121 3.2 4.8 0.00 0.00 0.00 85 1019.5
20260507090546 9 166 3.2 3.2 0.00 0.00 0.00 86 1019.5
20260507090038 10 181 1.6 3.2 0.00 0.00 0.00 85 1019.3
20260507085535 10 166 0.0 1.6 0.00 0.00 0.00 82 1019.4
20260507085032 10 154 1.6 3.2 0.00 0.00 0.00 81 1019.3
20260507084528 10 157 3.2 3.2 0.00 0.00 0.00 80 1019.6
20260507084026 11 175 1.6 1.6 0.00 0.00 0.00 80 1019.6
20260507083521 11 173 1.6 1.6 0.00 0.00 0.00 81 1019.3
20260507083019 11 113 4.8 4.8 0.00 0.00 0.00 80 1019.7
20260507082515 11 108 1.6 1.6 0.00 0.00 0.00 79 1019.6
20260507082011 11 131 1.6 1.6 0.00 0.00 0.00 81 1019.4
20260507081508 11 158 1.6 1.6 0.00 0.00 0.00 81 1019.5
20260507081005 11 178 1.6 1.6 0.00 0.00 0.00 81 1019.5
20260507080500 11 207 1.6 1.6 0.00 0.00 0.00 81 1019.6
20260507075956 11 173 0.0 1.6 0.00 0.00 0.00 81 1019.6
20260507075452 11 144 3.2 3.2 0.00 0.00 0.00 81 1019.6
20260507074949 11 161 0.0 0.0 0.00 0.00 0.00 82 1019.6
20260507074446 11 195 1.6 1.6 0.00 0.00 0.00 82 1019.7
20260507073944 11 162 1.6 1.6 0.00 0.00 0.00 82 1019.5
20260507073440 11 196 0.0 1.6 0.00 0.00 0.00 82 1019.5
20260507072937 11 212 0.0 0.0 0.00 0.00 0.00 82 1019.5
20260507072434 11 163 0.0 0.0 0.00 0.00 0.00 82 1019.5
20260507071932 11 190 1.6 1.6 0.00 0.00 0.00 82 1019.5
20260507071428 11 147 0.0 0.0 0.00 0.00 0.00 82 1019.6
20260507070925 11 158 1.6 1.6 0.00 0.00 0.00 81 1019.3
20260507070423 11 231 1.6 1.6 0.00 0.00 0.00 81 1019.6
20260507065919 11 141 0.0 1.6 0.00 0.00 0.00 82 1019.5
20260507065416 11 152 3.2 3.2 0.00 0.00 0.00 82 1019.8
20260507064913 11 162 0.0 0.0 0.00 0.00 0.00 83 1019.6
20260507064411 11 147 0.0 0.0 0.00 0.00 0.00 83 1019.5
20260507063909 11 150 0.0 0.0 0.00 0.00 0.00 83 1019.7
20260507063405 12 197 1.6 1.6 0.00 0.00 0.00 83 1019.5
20260507062857 12 187 1.6 1.6 0.00 0.00 0.00 83 1019.4
20260507062353 12 147 0.0 0.0 0.00 0.00 0.00 83 1019.4
20260507061851 12 212 6.4 8.0 0.00 0.00 0.00 83 1019.4
20260507061349 12 144 0.0 1.6 0.00 0.00 0.00 83 1019.4
20260507060847 12 117 1.6 1.6 0.00 0.00 0.00 83 1019.4
20260507060343 12 174 1.6 1.6 0.00 0.00 0.00 83 1019.3
20260507055840 12 161 1.6 3.2 0.00 0.00 0.00 83 1019.5
20260507055335 12 249 6.4 8.0 0.00 0.00 0.00 83 1019.3
20260507054832 12 174 0.0 1.6 0.00 0.00 0.00 83 1019.6
20260507054328 12 181 1.6 1.6 0.00 0.00 0.00 82 1019.6
20260507053825 12 178 1.6 1.6 0.00 0.00 0.00 82 1019.6
20260507053324 12 152 0.0 0.0 0.00 0.00 0.00 81 1019.7
20260507052822 12 142 1.6 1.6 0.00 0.00 0.00 81 1019.5
20260507052318 12 160 1.6 3.2 0.00 0.00 0.00 80 1019.5
20260507051816 12 213 1.6 1.6 0.00 0.00 0.00 80 1019.4
20260507051313 12 264 4.8 8.0 0.00 0.00 0.00 80 1019.4
20260507050810 12 163 3.2 3.2 0.00 0.00 0.00 80 1019.3
20260507050306 12 128 1.6 3.2 0.00 0.00 0.00 80 1019.6
20260507045803 12 152 4.8 8.0 0.00 0.00 0.00 80 1019.4
20260507045300 12 267 4.8 8.0 0.00 0.00 0.00 80 1019.4
20260507044757 12 147 6.4 9.7 0.00 0.00 0.00 80 1019.4
20260507044253 12 240 3.2 3.2 0.00 0.00 0.00 80 1019.4
20260507043749 13 165 1.6 1.6 0.00 0.00 0.00 81 1019.3
20260507043246 13 191 0.0 1.6 0.00 0.00 0.00 80 1019.4
20260507042743 13 162 0.0 0.0 0.00 0.00 0.00 80 1019.3
20260507042237 13 170 0.0 1.6 0.00 0.00 0.00 80 1019.5
20260507041736 13 166 1.6 1.6 0.00 0.00 0.00 80 1019.3
20260507041232 13 148 0.0 0.0 0.00 0.00 0.00 80 1019.5
20260507040729 13 139 0.0 0.0 0.00 0.00 0.00 79 1019.1
20260507040225 13 176 0.0 1.6 0.00 0.00 0.00 79 1019.2
20260507035721 13 142 0.0 0.0 0.00 0.00 0.00 79 1019.3
20260507035216 13 135 0.0 1.6 0.00 0.00 0.00 78 1019.1
20260507034714 13 195 0.0 1.6 0.00 0.00 0.00 78 1019.2
20260507034211 13 182 0.0 1.6 0.00 0.00 0.00 78 1019.2
20260507033709 13 271 1.6 1.6 0.00 0.00 0.00 78 1019.0
20260507033206 13 141 0.0 0.0 0.00 0.00 0.00 78 1019.1
20260507032704 13 222 3.2 3.2 0.00 0.00 0.00 77 1019.0
20260507032159 13 117 1.6 1.6 0.00 0.00 0.00 77 1018.9
20260507031657 13 153 0.0 0.0 0.00 0.00 0.00 77 1018.9
20260507031153 13 149 0.0 0.0 0.00 0.00 0.00 77 1018.9
20260507030650 13 141 0.0 0.0 0.00 0.00 0.00 77 1018.9
20260507030148 13 123 0.0 0.0 0.00 0.00 0.00 77 1018.8
20260507025644 14 182 1.6 3.2 0.00 0.00 0.00 76 1018.8
20260507025142 14 146 0.0 0.0 0.00 0.00 0.00 76 1018.7
20260507024639 14 140 0.0 0.0 0.00 0.00 0.00 76 1018.6
20260507024136 14 119 0.0 0.0 0.00 0.00 0.00 76 1018.7
20260507023632 14 150 0.0 0.0 0.00 0.00 0.00 76 1018.9
20260507023130 14 87 1.6 1.6 0.00 0.00 0.00 75 1018.7
20260507022626 14 178 1.6 1.6 0.00 0.00 0.00 76 1018.5
20260507022121 14 129 0.0 1.6 0.00 0.00 0.00 76 1018.7
20260507021618 14 129 0.0 0.0 0.00 0.00 0.00 76 1018.6
20260507021114 14 218 1.6 3.2 0.00 0.00 0.00 76 1018.7
20260507020613 14 136 0.0 0.0 0.00 0.00 0.00 76 1018.7
20260507020109 14 160 0.0 0.0 0.00 0.00 0.00 75 1018.3
20260507015608 15 154 0.0 0.0 0.00 0.00 0.00 75 1018.7
20260507015105 15 132 0.0 0.0 0.00 0.00 0.00 75 1018.5
20260507014602 15 103 1.6 1.6 0.00 0.00 0.00 74 1018.6
20260507014057 15 143 1.6 1.6 0.00 0.00 0.00 74 1018.5
20260507013554 15 112 0.0 0.0 0.00 0.00 0.00 73 1018.6
20260507013051 15 196 0.0 1.6 0.00 0.00 0.00 71 1018.3
20260507012548 15 200 1.6 3.2 0.00 0.00 0.00 71 1018.4
20260507012044 15 242 3.2 3.2 0.00 0.00 0.00 71 1018.6
20260507011542 15 152 3.2 4.8 0.00 0.00 0.00 69 1018.5
20260507011038 16 250 6.4 8.0 0.00 0.00 0.00 68 1018.5
20260507010532 16 173 1.6 1.6 0.00 0.00 0.00 69 1018.6
20260507010029 16 148 1.6 1.6 0.00 0.00 0.00 69 1018.6
20260507005527 16 133 1.6 1.6 0.00 0.00 0.00 69 1018.6
20260507005023 16 214 3.2 3.2 0.00 0.00 0.00 69 1018.5
20260507004520 16 94 1.6 1.6 0.00 0.00 0.00 70 1018.8
20260507004018 15 264 4.8 4.8 0.00 0.00 0.00 71 1018.6
20260507003513 15 248 3.2 3.2 0.00 0.00 0.00 70 1018.5
20260507003008 15 104 3.2 3.2 0.00 0.00 0.00 70 1018.6
20260507002505 16 210 3.2 3.2 0.00 0.00 0.00 70 1018.5
20260507002001 16 164 4.8 4.8 0.00 0.00 0.00 70 1018.5
20260507001458 15 180 1.6 1.6 0.00 0.00 0.00 70 1018.6
20260507000955 16 255 3.2 3.2 0.00 0.00 0.00 69 1018.7
20260507000451 16 134 1.6 1.6 0.00 0.00 0.00 69 1018.5
20260506235946 16 128 0.0 0.0 0.00 0.00 0.00 69 1018.5
20260506235444 16 66 1.6 1.6 0.00 0.00 0.00 68 1018.6
20260506234940 16 56 1.6 1.6 0.00 0.00 0.00 68 1018.6
20260506234437 16 275 3.2 4.8 0.00 0.00 0.00 69 1018.6
20260506233935 16 194 0.0 1.6 0.00 0.00 0.00 68 1018.6
20260506233431 16 130 0.0 0.0 0.00 0.00 0.00 67 1018.7
20260506232928 16 22 1.6 1.6 0.00 0.00 0.00 68 1018.7
20260506232424 16 141 0.0 0.0 0.00 0.00 0.00 67 1018.7
20260506231920 17 117 1.6 1.6 0.00 0.00 0.00 66 1018.6
20260506231418 17 161 0.0 0.0 0.00 0.00 0.00 64 1018.6
20260506230915 17 143 3.2 3.2 0.00 0.00 0.00 64 1018.7
20260506230411 16 116 1.6 1.6 0.00 0.00 0.00 68 1018.7
20260506225908 16 255 9.7 12.9 0.00 0.00 0.00 67 1018.7
20260506225405 16 40 0.0 1.6 0.00 0.00 0.00 69 1018.6
20260506224902 16 189 0.0 1.6 0.00 0.00 0.00 69 1018.3
20260506224359 16 114 3.2 8.0 0.00 0.00 0.00 69 1018.6
20260506223855 15 142 8.0 9.7 0.00 0.00 0.00 70 1019.0
20260506223351 16 232 3.2 3.2 0.00 0.00 0.00 69 1018.9
20260506222848 15 119 0.0 0.0 0.00 0.00 0.00 69 1018.7
20260506222344 15 165 1.6 3.2 0.00 0.00 0.00 70 1018.8
20260506221842 15 223 1.6 3.2 0.00 0.00 0.00 70 1018.9
20260506221339 16 198 1.6 1.6 0.00 0.00 0.00 70 1019.0
20260506220837 16 198 3.2 3.2 0.00 0.00 0.00 69 1019.1
20260506220332 16 190 1.6 1.6 0.00 0.00 0.00 69 1019.0
20260506215829 16 93 0.0 1.6 0.00 0.00 0.00 69 1019.0
20260506215324 15 167 1.6 3.2 0.00 0.00 0.00 70 1018.9
20260506214821 16 357 1.6 1.6 0.00 0.00 0.00 71 1019.0
20260506214317 15 159 0.0 0.0 0.00 0.00 0.00 72 1019.0
20260506213816 15 218 1.6 3.2 0.00 0.00 0.00 72 1018.9
20260506213313 15 177 1.6 1.6 0.00 0.00 0.00 74 1019.0
20260506212810 15 155 1.6 1.6 0.00 0.00 0.00 73 1018.9
20260506212307 15 203 3.2 3.2 0.00 0.00 0.00 74 1018.9
20260506211801 15 232 1.6 3.2 0.00 0.00 0.00 74 1019.2
20260506211257 15 206 6.4 8.0 0.00 0.00 0.00 74 1018.9
20260506210754 15 256 3.2 4.8 0.00 0.00 0.00 75 1018.9
20260506210251 15 178 1.6 1.6 0.00 0.00 0.00 75 1018.9
20260506205748 14 188 1.6 1.6 0.00 0.00 0.00 75 1019.1
20260506205244 14 130 0.0 0.0 0.00 0.00 0.00 75 1019.1
20260506204741 14 237 4.8 4.8 0.00 0.00 0.00 75 1018.8
20260506204239 15 110 1.6 3.2 0.00 0.00 0.00 75 1018.8
20260506203736 14 147 6.4 8.0 0.00 0.00 0.00 77 1018.8
20260506203233 14 239 1.6 1.6 0.00 0.00 0.00 76 1018.9
20260506202731 14 208 4.8 4.8 0.00 0.00 0.00 77 1019.0
20260506202227 14 157 1.6 1.6 0.00 0.00 0.00 77 1018.8
20260506201724 14 236 4.8 8.0 0.00 0.00 0.00 76 1018.9
20260506201220 14 225 6.4 9.7 0.00 0.00 0.00 78 1018.6
20260506200718 14 62 1.6 1.6 0.00 0.00 0.00 79 1018.9
20260506200214 14 137 3.2 3.2 0.00 0.00 0.00 80 1018.9
20260506195710 13 195 8.0 11.3 0.00 0.00 0.00 80 1018.9
20260506195207 13 168 3.2 8.0 0.00 0.00 0.00 80 1018.8
20260506194659 13 104 1.6 3.2 0.00 0.00 0.00 81 1018.8
20260506194155 13 111 3.2 3.2 0.00 0.00 0.00 81 1018.7
20260506193653 13 138 4.8 4.8 0.00 0.00 0.00 82 1018.9
20260506193149 13 146 6.4 9.7 0.00 0.00 0.00 82 1018.8
20260506192646 13 218 8.0 9.7 0.00 0.00 0.00 81 1018.7
20260506192142 13 172 3.2 3.2 0.00 0.00 0.00 81 1018.7
20260506191640 13 187 1.6 3.2 0.00 0.00 0.00 82 1018.9
20260506191135 13 136 4.8 4.8 0.00 0.00 0.00 82 1018.7
20260506190633 13 165 1.6 1.6 0.00 0.00 0.00 83 1018.8
20260506190130 13 178 1.6 3.2 0.00 0.00 0.00 84 1018.7
20260506185627 13 165 4.8 9.7 0.00 0.00 0.00 83 1018.8
20260506185123 13 106 11.3 12.9 0.00 0.00 0.00 83 1019.0
20260506184620 13 171 4.8 4.8 0.00 0.00 0.00 84 1019.0
20260506184118 13 138 6.4 8.0 0.00 0.00 0.00 84 1018.8
20260506183614 13 220 1.6 1.6 0.00 0.00 0.00 84 1018.8
20260506183110 12 167 3.2 3.2 0.00 0.00 0.00 85 1018.6
20260506182608 12 146 4.8 4.8 0.00 0.00 0.00 85 1018.5
20260506182105 13 123 11.3 12.9 0.00 0.00 0.00 84 1018.6
20260506181603 13 119 3.2 3.2 0.00 0.00 0.00 85 1018.7
20260506181059 13 175 6.4 9.7 0.00 0.00 0.00 85 1018.8
20260506180556 12 154 1.6 3.2 0.00 0.00 0.00 85 1018.8
20260506180052 12 132 1.6 1.6 0.00 0.00 0.00 85 1018.5
20260506175549 12 152 0.0 0.0 0.00 0.00 0.00 86 1018.7
20260506175045 12 326 1.6 1.6 0.00 0.00 0.00 85 1018.7
20260506174544 12 226 4.8 4.8 0.00 0.00 0.00 85 1018.6
20260506174039 12 94 4.8 8.0 0.00 0.00 0.00 85 1018.5
20260506173538 12 155 0.0 0.0 0.00 0.00 0.00 86 1018.5
20260506173034 12 193 3.2 3.2 0.00 0.00 0.00 86 1018.6
20260506172532 12 188 0.0 1.6 0.00 0.00 0.00 86 1018.6
20260506172028 12 108 4.8 4.8 0.00 0.00 0.00 87 1018.6
20260506171525 12 205 3.2 3.2 0.00 0.00 0.00 87 1018.6
20260506171023 12 281 1.6 3.2 0.00 0.00 0.00 87 1018.7
20260506170520 12 216 3.2 3.2 0.00 0.00 0.00 87 1018.7
20260506170012 12 132 6.4 9.7 0.00 0.00 0.00 87 1018.5
20260506165510 12 85 1.6 3.2 0.00 0.00 0.00 87 1018.6
20260506165006 12 150 0.0 1.6 0.00 0.00 0.00 87 1018.5
20260506164503 12 276 4.8 4.8 0.00 0.00 0.00 87 1018.4
20260506164001 12 129 1.6 3.2 0.00 0.00 0.00 87 1018.5
20260506163455 12 175 0.0 0.0 0.00 0.00 0.00 88 1018.2
20260506162949 12 238 3.2 3.2 0.00 0.00 0.00 88 1018.2
20260506162448 12 219 0.0 1.6 0.00 0.00 0.00 89 1018.2
20260506161939 12 253 3.2 3.2 0.00 0.00 0.00 88 1018.1
20260506161437 12 158 0.0 1.6 0.00 0.00 0.00 88 1018.2
20260506160929 11 154 0.0 0.0 0.00 0.00 0.00 89 1018.3
20260506160426 11 200 0.0 1.6 0.00 0.00 0.00 88 1018.3
20260506155923 12 222 1.6 1.6 0.00 0.00 0.00 89 1018.2
20260506155420 12 196 1.6 1.6 0.00 0.00 0.00 89 1018.4
20260506153542 11 145 4.8 4.8 0.00 0.00 0.00 89 1018.0
20260506153040 11 166 1.6 3.2 0.00 0.00 0.00 89 1018.0
20260506152537 11 214 3.2 3.2 0.00 0.00 0.00 88 1018.3
20260506152035 11 168 0.0 1.6 0.00 0.00 0.00 89 1018.2
20260506151532 11 184 1.6 3.2 0.00 0.00 0.00 89 1018.3
20260506151029 11 258 3.2 3.2 0.00 0.00 0.00 89 1018.2
20260506150526 11 82 0.0 1.6 0.00 0.00 0.00 89 1018.5
20260506150023 11 128 0.0 1.6 0.00 0.00 0.00 89 1018.4
20260506145519 11 222 1.6 4.8 0.00 0.00 0.00 89 1018.6
20260506145017 11 254 1.6 3.2 0.00 0.00 0.00 89 1018.1
20260506144513 11 150 4.8 4.8 0.00 0.00 0.00 89 1017.8
20260506144011 11 143 1.6 1.6 0.00 0.00 0.00 89 1018.0
20260506143509 11 131 3.2 3.2 0.00 0.00 0.00 89 1017.7
20260506143007 11 182 4.8 4.8 0.00 0.00 0.00 90 1018.0
20260506142504 11 149 4.8 4.8 0.00 0.00 0.00 90 1018.0
20260506142002 11 133 3.2 4.8 0.00 0.00 0.00 90 1018.1
20260506141500 11 124 4.8 9.7 0.00 0.00 0.00 90 1017.9
20260506140958 11 142 3.2 3.2 0.00 0.00 0.00 90 1017.7
20260506140455 11 232 1.6 3.2 0.00 0.00 0.00 90 1018.0
20260506135951 11 143 8.0 11.3 0.00 0.00 0.00 91 1017.4
20260506135449 11 175 3.2 3.2 0.00 0.00 0.00 90 1018.0
20260506134944 11 186 3.2 4.8 0.00 0.00 0.00 90 1018.0
20260506134441 11 200 1.6 3.2 0.00 0.00 0.00 90 1017.9
20260506133938 11 129 1.6 3.2 0.00 0.00 0.00 90 1017.9
20260506133435 11 154 1.6 1.6 0.00 0.00 0.00 90 1017.9
20260506132931 11 174 0.0 0.0 0.00 0.00 0.00 90 1017.9
20260506132429 11 172 1.6 1.6 0.00 0.00 0.00 90 1017.5
20260506131926 11 179 0.0 1.6 0.00 0.00 0.00 90 1017.3
20260506131422 11 166 4.8 4.8 0.00 0.00 0.00 90 1017.3
20260506130920 11 133 3.2 3.2 0.00 0.00 0.00 90 1017.3
20260506130416 11 133 3.2 3.2 0.00 0.00 0.00 91 1017.3
20260506125914 11 149 3.2 3.2 0.00 0.00 0.00 91 1017.2
20260506125412 11 144 1.6 3.2 0.00 0.00 0.00 91 1017.5
20260506124910 11 184 1.6 3.2 0.00 0.00 0.00 92 1017.4
20260506124407 11 124 1.6 3.2 0.00 0.00 0.00 92 1017.3
20260506123905 11 180 1.6 1.6 0.00 0.00 0.00 92 1017.3
20260506123403 11 167 1.6 1.6 0.00 0.00 0.00 92 1017.2
20260506122900 11 160 1.6 1.6 0.00 0.00 0.00 92 1017.2
20260506122356 11 135 1.6 1.6 0.00 0.00 0.00 92 1017.2
20260506121855 11 185 1.6 1.6 0.00 0.00 0.00 92 1017.4
20260506121352 11 147 1.6 1.6 0.00 0.00 0.00 92 1017.2
20260506120848 11 151 3.2 3.2 0.00 0.00 0.00 92 1017.2
20260506120346 11 174 4.8 8.0 0.00 0.00 0.00 92 1017.0
20260506115843 11 160 4.8 4.8 0.00 0.00 0.00 93 1017.0
20260506115342 11 151 4.8 4.8 0.00 0.00 0.00 93 1016.8
20260506114839 11 174 3.2 3.2 0.00 0.00 0.00 93 1016.9
20260506114337 11 159 4.8 4.8 0.00 0.00 0.00 93 1017.0
20260506113835 11 157 3.2 3.2 0.00 0.00 0.00 93 1017.0
20260506113332 11 201 1.6 1.6 0.00 0.00 0.00 93 1017.2
20260506112829 11 147 3.2 3.2 0.00 0.00 0.00 93 1017.2
20260506112326 11 143 1.6 1.6 0.00 0.00 0.00 92 1017.0
20260506111823 11 160 1.6 3.2 0.00 0.00 0.00 92 1017.0
20260506111322 11 191 1.6 1.6 0.00 0.00 0.00 92 1017.0
20260506110819 11 159 3.2 3.2 0.00 0.00 0.00 91 1017.0